Location: Three Oaks Observatory
(31.1535°N, 83.5955°W)
Time: 08:53:18
(UTC-05:00)

FALCONSAT 3 - Pass Details

Date: 28 October 2019
Orbit: 454 x 456 km, 35.4° (Epoch: 21 November)

Event Time Altitude Azimuth Distance (km) Brightness Sun altitude
Exits shadow 06:14:51 38° 194° (SSW) 708 ? -20.2°
Drops below altitude 10° 06:17:57 10° 137° (SE) 1,576 ? -19.5°
Sets 06:20:11 0° 129° (SE) 2,446 ? -19.0°
